Wind_Speed
46 46 46 46 46 46 46 46 46 45 44 44 45 44 43 44 44 44 45 45 46 46 47 47 47 48 49 49 49 48 48 48 48 48 48 48 49 49
46 46 46 46 46 46 46 46 46 46 45 44 44 44 44 44 45 45 45 46 47 48 48 49 49 49 49 50 50 49 48 48 48 48 49 49 49 49
46 46 46 46 46 46 46 47 46 46 46 44 45 46 46 46 46 46 47 47 47 48 49 49 49 49 49 49 48 49 49 49 49 49 50 50 49 49
46 47 46 47 47 46 47 47 47 47 47 46 47 46 46 46 47 47 48 48 48 47 47 47 48 48 48 48 49 49 49 50 50 50 50 50 50 50
46 46 46 46 46 46 47 47 48 48 47 47 47 47 47 47 47 48 48 48 48 47 47 48 48 48 48 48 48 48 49 49 49 50 50 50 50 50
46 46 46 46 46 46 47 47 48 48 49 49 48 48 48 48 48 48 47 47 47 48 48 48 49 48 47 47 48 48 48 48 48 48 47 47 47 48
46 46 46 47 47 47 47 48 48 49 49 48 48 47 48 48 48 47 46 46 47 47 47 47 47 47 47 47 47 47 46 46 46 46 46 45 45 45
45 46 47 47 47 47 48 48 48 48 48 48 48 48 47 47 47 47 47 47 46 46 46 46 46 46 46 46 46 46 45 44 44 44 43 43 43 43
43 44 45 47 47 46 46 46 46 47 47 48 48 48 47 47 47 48 48 48 47 47 47 46 46 45 45 45 44 43 42 42 41 41 40 40 40 40
41 42 43 44 45 45 45 44 45 46 46 46 47 46 47 47 47 47 47 47 46 46 46 45 44 44 43 43 42 41 41 41 40 39 39 39 39 39
38 39 40 41 42 43 44 43 43 43 44 44 44 45 45 46 45 45 45 44 43 43 44 43 42 42 41 41 40 39 39 39 39 38 38 38 39 39
36 36 37 38 38 39 40 40 40 40 41 41 42 42 42 42 42 42 42 42 41 40 40 40 39 40 39 38 38 37 37 36 36 36 37 37 38 38
34 34 34 35 35 35 36 37 37 37 37 38 38 39 40 40 39 39 39 39 38 37 37 37 37 36 35 35 35 34 34 34 34 34 35 35 36 36
31 32 32 32 32 33 33 33 34 34 35 36 36 37 38 37 37 37 37 37 36 36 35 35 34 34 33 33 33 33 33 33 33 33 32 33 33 33
29 29 29 29 30 30 31 31 31 31 32 33 34 35 35 35 35 35 35 35 34 34 34 34 33 33 33 32 32 31 31 31 31 30 30 30 30 30
26 26 26 27 27 27 27 28 29 29 30 30 31 32 32 31 32 32 32 32 32 32 32 32 32 32 32 31 31 30 29 29 29 29 29 29 29 29
24 24 23 24 24 24 24 24 25 26 27 27 27 27 27 28 28 28 28 28 29 28 28 29 29 30 30 29 29 28 28 27 27 27 28 28 28 27
22 22 22 23 23 22 22 22 23 24 24 25 25 24 24 25 25 25 25 25 25 25 25 26 26 27 27 27 27 27 26 26 26 25 25 24 23 23
20 21 21 22 21 22 22 22 22 22 22 22 23 22 22 22 22 22 23 23 24 24 24 24 24 25 25 25 25 24 23 23 22 21 21 20 20 19
20 20 20 20 20 21 20 20 20 20 20 20 20 21 21 21 21 21 22 22 22 22 22 22 22 22 23 23 22 22 22 21 21 20 20 19 19 18
19 19 19 19 19 19 19 19 18 18 18 18 18 18 18 19 19 20 20 20 20 20 19 19 19 19 20 20 20 20 20 19 19 19 19 19 18 18
18 18 18 18 18 17 17 16 16 16 16 16 16 16 16 16 17 17 17 17 18 18 18 18 18 18 17 17 16 16 16 17 17 17 17 17 17 16
17 17 17 17 16 15 14 14 13 13 13 13 14 14 14 14 14 14 14 15 15 16 16 16 16 15 14 14 13 14 14 14 14 15 15 14 14 15
Wind_Direction
262 262 262 263 263 264 266 267 268 268 268 268 268 269 271 271 273 273 273 273 274 275 277 278 278 279 279 280 280 281 281 281 281 281 280 280 281 282
260 261 262 262 263 263 265 266 268 268 268 268 268 268 270 272 273 273 274 274 274 275 277 278 279 280 280 280 280 280 281 281 281 281 281 281 281 282
260 260 260 261 262 263 265 265 267 268 268 268 269 269 269 271 272 273 275 276 276 276 277 278 279 280 280 280 280 280 280 280 281 281 282 282 282 281
261 261 261 262 263 264 266 266 266 267 268 269 269 269 269 270 272 273 275 276 277 277 278 279 279 280 280 280 280 280 280 280 281 281 281 281 281 281
261 262 262 262 263 264 265 266 267 267 268 269 269 270 271 271 273 274 275 276 276 277 278 279 279 280 281 281 281 282 281 281 282 282 282 281 281 281
262 263 262 262 263 264 265 266 267 267 268 269 270 271 272 272 273 274 274 275 276 277 278 279 279 280 281 282 282 282 282 282 282 282 281 281 281 280
262 263 263 263 264 265 266 267 267 268 269 269 270 272 272 273 273 274 274 274 276 276 278 280 280 280 281 282 282 282 282 282 282 282 281 282 281 281
263 263 263 263 264 265 265 266 267 267 268 269 269 271 272 273 273 274 274 275 276 277 278 279 280 281 281 281 281 282 282 283 283 282 281 282 282 281
265 265 265 264 264 265 265 265 266 266 268 269 269 270 271 272 273 274 274 276 277 278 279 280 281 281 281 280 280 281 282 283 282 282 282 282 283 282
267 267 267 266 265 266 266 266 266 266 267 268 269 269 270 271 272 274 275 277 278 278 279 280 280 280 280 280 280 280 282 283 283 283 283 283 284 283
268 268 268 268 266 266 266 266 267 267 267 268 269 269 270 272 273 273 274 276 276 277 278 279 280 280 280 279 279 280 282 284 284 284 283 284 284 283
270 270 269 268 267 266 267 268 268 268 269 269 270 270 271 272 273 273 274 275 275 276 277 278 279 280 280 280 280 281 282 283 284 284 284 285 285 284
271 271 271 270 268 267 267 269 269 269 269 270 270 270 271 272 273 274 273 274 275 275 276 277 278 278 278 279 280 281 281 282 282 283 284 286 288 287
272 272 272 271 270 268 268 269 269 268 269 270 271 271 272 272 273 273 272 272 273 274 273 274 275 277 278 279 280 282 282 282 282 283 285 286 287 289
275 274 275 274 273 271 269 269 269 269 270 271 271 272 272 272 272 271 271 271 271 271 272 272 273 275 277 278 280 281 281 281 282 283 286 287 288 289
277 277 276 276 276 274 273 272 270 271 272 273 273 273 272 272 271 271 271 271 270 271 272 272 273 274 276 277 279 281 281 281 282 284 286 288 289 290
279 279 278 278 277 277 277 276 275 274 274 274 275 274 273 272 272 271 271 270 271 271 273 273 273 275 277 278 278 280 281 281 282 284 286 287 288 289
281 281 282 281 279 279 278 277 277 278 277 276 275 275 275 274 272 272 272 272 272 273 274 275 276 277 278 279 280 282 283 284 284 285 287 288 288 290
281 281 282 282 282 282 281 281 280 280 279 275 274 274 275 275 274 274 275 276 276 276 276 277 277 278 278 280 280 281 282 284 284 286 288 289 291 291
280 281 283 284 284 284 284 282 282 281 280 276 275 275 275 276 277 277 278 279 279 278 279 280 279 278 279 280 280 280 280 281 283 286 288 289 290 290
280 282 284 284 285 285 285 285 283 282 280 278 277 278 278 278 280 280 279 279 278 278 279 281 282 281 281 281 283 283 282 282 283 285 287 289 289 288
282 283 285 286 288 288 287 286 285 284 282 280 279 279 280 281 283 283 281 279 279 279 280 281 282 283 283 284 285 285 284 284 284 286 288 288 289 290
285 285 285 286 287 287 284 285 286 285 283 282 282 283 283 283 284 285 284 283 283 283 283 283 283 283 283 285 285 286 287 288 288 289 290 290 291 292
Height
5650 5652 5653 5654 5656 5657 5658 5659 5660 5661 5663 5663 5663 5664 5664 5664 5664 5664 5664 5664 5663 5662 5662 5661 5660 5658 5657 5656 5654 5652 5651 5649 5647 5646 5644 5642 5640 5638
5638 5639 5641 5643 5644 5645 5646 5647 5648 5649 5651 5652 5652 5652 5653 5653 5653 5653 5652 5652 5651 5650 5649 5648 5647 5645 5644 5642 5641 5639 5637 5636 5634 5632 5630 5628 5626 5624
5625 5627 5629 5630 5631 5633 5634 5635 5636 5637 5638 5640 5640 5640 5640 5641 5640 5640 5640 5639 5638 5637 5636 5635 5633 5632 5630 5628 5627 5625 5624 5622 5620 5619 5617 5615 5613 5611
5613 5614 5616 5617 5619 5620 5621 5622 5623 5624 5626 5627 5627 5628 5628 5628 5628 5627 5627 5626 5625 5624 5623 5621 5620 5618 5617 5615 5613 5611 5610 5608 5606 5605 5603 5601 5599 5596
5600 5602 5603 5605 5606 5607 5608 5609 5610 5611 5612 5613 5614 5615 5615 5615 5614 5614 5614 5613 5612 5611 5610 5608 5607 5605 5603 5601 5599 5597 5596 5594 5592 5590 5588 5586 5584 5582
5587 5589 5590 5592 5593 5594 5595 5596 5597 5598 5599 5600 5601 5601 5602 5601 5601 5601 5601 5599 5598 5597 5596 5595 5593 5591 5589 5588 5586 5584 5582 5580 5578 5576 5574 5572 5570 5568
5574 5576 5577 5578 5580 5581 5582 5583 5584 5584 5585 5586 5587 5587 5588 5588 5587 5587 5587 5586 5585 5584 5583 5581 5580 5578 5576 5574 5572 5570 5568 5566 5564 5562 5560 5559 5557 5555
5561 5562 5564 5565 5566 5567 5568 5569 5570 5571 5572 5573 5573 5574 5574 5574 5573 5573 5573 5573 5573 5572 5570 5569 5566 5565 5563 5561 5559 5557 5555 5553 5551 5550 5548 5546 5544 5542
5548 5549 5550 5552 5553 5554 5555 5555 5556 5557 5558 5559 5560 5560 5560 5560 5560 5560 5559 5558 5558 5557 5556 5556 5554 5552 5550 5548 5546 5544 5543 5541 5539 5538 5536 5534 5532 5530
5537 5537 5538 5538 5539 5540 5541 5542 5542 5543 5544 5545 5546 5546 5546 5545 5545 5545 5544 5544 5544 5543 5542 5542 5541 5539 5538 5535 5533 5532 5531 5529 5528 5526 5524 5522 5520 5518
5525 5525 5526 5526 5526 5527 5528 5529 5529 5529 5530 5531 5531 5531 5532 5531 5531 5531 5531 5531 5531 5530 5529 5528 5528 5527 5525 5524 5522 5521 5519 5518 5516 5514 5513 5511 5509 5507
5514 5514 5514 5514 5514 5514 5515 5515 5516 5517 5517 5517 5518 5518 5518 5518 5518 5518 5518 5518 5517 5518 5517 5516 5515 5514 5514 5513 5511 5510 5508 5506 5505 5503 5502 5500 5497 5495
5504 5504 5503 5503 5503 5503 5503 5504 5504 5505 5505 5505 5505 5505 5506 5506 5506 5506 5506 5506 5506 5506 5505 5505 5504 5503 5502 5502 5501 5500 5498 5497 5495 5493 5491 5489 5487 5484
5494 5494 5493 5493 5492 5492 5493 5493 5493 5493 5494 5494 5494 5494 5494 5494 5494 5494 5494 5494 5494 5495 5494 5494 5493 5493 5492 5491 5491 5490 5488 5487 5485 5483 5481 5479 5477 5474
5485 5485 5484 5483 5483 5483 5483 5483 5483 5483 5483 5483 5483 5483 5483 5483 5483 5483 5483 5483 5484 5484 5484 5483 5483 5483 5482 5482 5482 5481 5480 5478 5476 5474 5472 5470 5468 5466
5477 5477 5476 5475 5475 5474 5474 5473 5474 5474 5473 5474 5473 5473 5473 5473 5473 5473 5473 5474 5474 5474 5474 5474 5473 5473 5473 5473 5472 5471 5470 5469 5467 5465 5464 5462 5460 5458
5470 5470 5469 5468 5468 5467 5466 5466 5465 5465 5465 5465 5464 5464 5464 5464 5464 5464 5464 5464 5465 5465 5465 5465 5464 5464 5464 5463 5463 5462 5461 5460 5459 5458 5456 5454 5452 5451
5464 5463 5462 5461 5461 5460 5459 5459 5458 5457 5457 5457 5456 5456 5456 5456 5456 5456 5456 5456 5457 5457 5457 5457 5457 5456 5456 5455 5455 5454 5453 5452 5451 5450 5449 5447 5446 5444
5458 5457 5456 5455 5454 5453 5452 5452 5451 5450 5449 5449 5449 5449 5449 5449 5449 5449 5449 5449 5449 5450 5450 5449 5449 5449 5448 5448 5448 5447 5446 5445 5444 5443 5442 5441 5440 5438
5452 5451 5450 5449 5448 5447 5446 5445 5444 5444 5443 5443 5443 5443 5443 5443 5443 5443 5443 5443 5443 5442 5442 5442 5442 5441 5441 5441 5441 5440 5440 5439 5438 5437 5436 5435 5434 5433
5447 5446 5445 5444 5443 5442 5441 5440 5439 5438 5438 5437 5437 5437 5437 5437 5437 5437 5437 5436 5436 5436 5436 5436 5435 5435 5434 5434 5434 5434 5433 5432 5432 5431 5430 5429 5428 5427
5441 5440 5440 5439 5438 5437 5436 5435 5434 5434 5433 5433 5433 5433 5432 5432 5432 5431 5431 5431 5431 5431 5430 5430 5429 5429 5429 5429 5428 5428 5428 5427 5426 5426 5425 5424 5423 5422
5436 5435 5435 5434 5433 5432 5431 5431 5430 5430 5429 5429 5429 5428 5428 5428 5427 5427 5426 5426 5426 5425 5425 5425 5425 5424 5424 5424 5424 5423 5423 5422 5422 5421 5421 5420 5419 5418